Home   Weather   Passaic   Past weeks

Flag for USA Past Weather in Passaic, New Jersey, USA — Yesterday and Last 2 Weeks

Now
59 °F

Sunny.


Feels Like: 57 °F
Forecast: 45 / 66 °F
Wind: 10 mph from South

Location: Teterboro Airport

Current Time: Apr 23, 2017 at 7:49:08 pm

Latest Report: Apr 23, 2017 at 6:51 pm


Visibility: 10 mi

Pressure: 30.06 "Hg

Humidity: 51%

Dew Point: 41 °F

Location of PassaicLocation

Past Weather in Passaic — Graph

°F

Passaic Temperature Yesterday

Maximum temperature yesterday: 56 °F (at 10:51 am)
Minimum temperature yesterday: 50 °F (at 12:51 am)
Average temperature yesterday: 54 °F

High & Low Weather Summary for the Past Weeks

 TemperatureHumidityPressure
High88 °F (Apr 16, 1:51 pm)96% (Apr 21, 11:01 pm)30.53 "Hg (Apr 21, 11:01 pm)
Low37 °F (Apr 9, 6:51 am)21% (Apr 9, 2:51 pm)29.74 "Hg (Apr 16, 6:51 pm)
Average59 °F57%30.13 "Hg
* Reported Apr 8 5:51 pm — Apr 23 5:51 pm, Passaic, Weather by CustomWeather, © 2017

Note: Actual official high and low records may vary slightly from our data, if they occured in-between our weather recording intervals... More about our weather records

Advertising

Passaic Weather History for the Previous 24 Hours

Scroll right to see more
 ConditionsComfort  
Time TempWeatherWind HumidityBarometerVisibility
5:51 pm
Sun, Apr 23
63 °FSunny.9 mph41%30.05 "Hg10 mi
4:51 pm64 °FSunny.10 mph38%30.04 "Hg10 mi
3:51 pm65 °FSunny.10 mph36%30.04 "Hg10 mi
2:51 pm65 °FSunny.3 mph29%30.06 "Hg10 mi
1:51 pm64 °FSunny.No wind35%30.08 "Hg10 mi
12:51 pm62 °FSunny.No wind37%30.10 "Hg10 mi
11:51 am58 °FSunny.3 mph46%30.11 "Hg10 mi
10:51 am56 °FSunny.7 mph47%30.13 "Hg10 mi
9:51 am54 °FSunny.5 mph51%30.12 "Hg10 mi
8:51 am52 °FSunny.9 mph55%30.12 "Hg10 mi
7:51 am49 °FSunny.6 mph64%30.11 "Hg10 mi
6:51 am45 °FSunny.3 mph71%30.09 "Hg10 mi
5:51 am46 °FClear.5 mph66%30.06 "Hg10 mi
4:51 am47 °FClear.8 mph64%30.04 "Hg10 mi
3:51 am47 °FClear.7 mph69%30.03 "Hg10 mi
2:51 am47 °FClear.7 mph71%30.02 "Hg10 mi
1:51 am48 °FClear.6 mph68%30.02 "Hg10 mi
12:51 am49 °FClear.7 mph66%30.03 "Hg10 mi
11:51 pm
Sat, Apr 22
51 °FPassing clouds.7 mph61%30.01 "Hg10 mi
10:51 pm52 °FOvercast.7 mph59%29.98 "Hg10 mi
9:51 pm53 °FPassing clouds.8 mph59%29.99 "Hg10 mi
8:51 pm54 °FPassing clouds.12 mph62%29.96 "Hg10 mi
7:51 pm55 °FPassing clouds.No wind67%29.95 "Hg10 mi
Weather by CustomWeather, © 2017

See weather overviewHow to use our weather pages